DW2891 Weather Reports


Display with metric or nautical units.
time (UTC)temp
F
wind
direction
speed
MPH
gust
MPH
rain 1hr
in
rain 24hr
in
rain mn
in
humidity
%
barometer
mb
20260510023104 64 42 0.0 0.0 0.00 0.00 0.00 64 1015.4
20260510022604 64 42 0.0 0.0 0.00 0.00 0.00 64 1015.5
20260510022103 64 42 0.0 0.0 0.00 0.00 0.00 61 1015.5
20260510021104 65 42 0.0 0.0 0.00 0.00 0.00 59 1015.6
20260510020604 65 42 0.0 1.0 0.00 0.00 0.00 58 1015.7
20260510020104 65 42 1.0 6.0 0.00 0.00 0.00 59 1015.8
20260510015603 65 310 0.0 5.0 0.00 0.00 0.00 58 1015.9
20260510015104 65 49 0.0 3.0 0.00 0.00 0.00 58 1015.8
20260510014604 65 321 0.0 1.0 0.00 0.00 0.00 58 1015.9
20260510014104 65 264 0.0 2.0 0.00 0.00 0.00 58 1015.9
20260510013604 66 68 0.0 0.0 0.00 0.00 0.00 58 1015.9
20260510012603 65 227 0.0 0.0 0.00 0.00 0.00 60 1016.2
20260510012104 65 227 0.0 3.0 0.00 0.00 0.00 59 1016.4
20260510011104 65 306 0.0 6.0 0.00 0.00 0.00 58 1016.7
20260510010604 65 212 3.0 8.0 0.00 0.00 0.00 58 1016.7
20260510010104 65 55 1.0 2.0 0.00 0.00 0.00 60 1016.7
20260510004604 65 51 0.0 1.0 0.00 0.00 0.00 60 1016.8
20260510004103 65 51 0.0 5.0 0.00 0.00 0.00 58 1016.9
20260510003604 65 50 0.0 1.0 0.00 0.00 0.00 59 1016.9
20260510002604 65 50 0.0 0.0 0.00 0.00 0.00 58 1016.9
20260510002103 65 50 2.0 6.0 0.00 0.00 0.00 57 1017.0
20260510001603 65 52 0.0 1.0 0.00 0.00 0.00 57 1016.9
20260510001104 65 34 0.0 1.0 0.00 0.00 0.00 58 1017.1
20260510000604 65 34 0.0 3.0 0.00 0.00 0.00 57 1017.3
20260509235603 65 36 0.0 0.0 0.00 0.00 0.00 58 1017.3
20260509235104 65 36 0.0 6.0 0.00 0.00 0.00 57 1017.5
20260509234104 65 40 1.0 5.0 0.00 0.00 0.00 57 1017.5
20260509233604 65 213 2.0 5.0 0.00 0.00 0.00 56 1017.6
20260509230604 66 34 1.0 5.0 0.00 0.00 0.00 56 1018.2
20260509223604 66 57 0.0 5.0 0.00 0.00 0.00 55 1018.6
20260509223103 66 41 1.0 5.0 0.00 0.00 0.00 57 1018.6
20260509222604 65 46 1.0 5.0 0.00 0.00 0.00 59 1018.6
20260509222103 65 92 0.0 3.0 0.00 0.00 0.00 57 1018.9
20260509221104 65 307 0.0 5.0 0.00 0.00 0.00 59 1019.0
20260509220604 65 129 1.0 5.0 0.00 0.00 0.00 60 1019.0
20260509215604 64 45 1.0 2.0 0.00 0.00 0.00 59 1019.2
20260509215105 64 43 0.0 0.0 0.00 0.00 0.00 60 1019.2
20260509214604 65 65 0.0 3.0 0.00 0.00 0.00 60 1019.4
20260509214104 65 47 0.0 2.0 0.00 0.00 0.00 62 1019.5
20260509213604 64 46 0.0 2.0 0.00 0.00 0.00 61 1019.3
20260509213105 65 49 0.0 1.0 0.00 0.00 0.00 62 1019.5
20260509212604 65 46 0.0 1.0 0.00 0.00 0.00 64 1019.5
20260509211604 64 116 0.0 3.0 0.00 0.00 0.00 60 1019.6
20260509211105 65 69 1.0 5.0 0.00 0.00 0.00 59 1019.7
20260509210604 65 313 0.0 1.0 0.00 0.00 0.00 65 1019.7
20260509210104 64 65 0.0 3.0 0.00 0.00 0.00 61 1019.8
20260509205105 64 59 3.0 6.0 0.00 0.00 0.00 58 1019.8
20260509204604 64 35 3.0 8.0 0.00 0.00 0.00 60 1019.9
20260509204104 63 56 0.0 3.0 0.00 0.00 0.00 64 1019.9
20260509203604 63 61 1.0 3.0 0.00 0.00 0.00 66 1020.1
20260509203105 62 53 1.0 5.0 0.00 0.00 0.00 62 1020.3
20260509202604 63 61 0.0 3.0 0.00 0.00 0.00 64 1020.3
20260509202104 63 64 0.0 3.0 0.00 0.00 0.00 62 1020.2
20260509201604 63 64 0.0 1.0 0.00 0.00 0.00 65 1020.2
20260509200603 63 55 0.0 1.0 0.00 0.00 0.00 63 1020.3
20260509200104 62 49 1.0 6.0 0.00 0.00 0.00 64 1020.2
20260509195103 62 52 0.0 0.0 0.00 0.00 0.00 66 1020.4
20260509194104 61 127 1.0 6.0 0.00 0.00 0.00 70 1020.4
20260509193604 62 57 0.0 2.0 0.00 0.00 0.00 69 1020.5
20260509193104 61 68 1.0 3.0 0.00 0.00 0.00 68 1020.5
20260509192103 61 55 0.0 1.0 0.00 0.00 0.00 71 1020.9
20260509191603 61 55 0.0 2.0 0.00 0.00 0.00 73 1020.9
20260509191104 61 55 0.0 0.0 0.00 0.00 0.00 72 1021.0
20260509190603 60 55 0.0 1.0 0.00 0.00 0.00 71 1020.9
20260509185604 60 58 0.0 0.0 0.00 0.00 0.00 74 1021.1
20260509185103 60 58 0.0 1.0 0.00 0.00 0.00 75 1021.1
20260509184604 60 58 0.0 0.0 0.00 0.00 0.00 75 1020.9
20260509184104 60 58 1.0 5.0 0.00 0.00 0.00 74 1021.2
20260509183604 59 58 1.0 2.0 0.00 0.00 0.00 77 1021.2
20260509183104 59 58 0.0 2.0 0.00 0.00 0.00 76 1021.2
20260509182604 60 59 0.0 2.0 0.00 0.00 0.00 76 1021.1
20260509182104 60 59 0.0 1.0 0.00 0.00 0.00 77 1021.1
20260509181104 60 58 0.0 1.0 0.00 0.00 0.00 78 1021.1
20260509180604 60 64 0.0 1.0 0.00 0.00 0.00 76 1021.1
20260509180104 60 64 0.0 1.0 0.00 0.00 0.00 76 1021.1
20260509175604 61 63 0.0 2.0 0.00 0.00 0.00 78 1021.2
20260509174604 59 63 0.0 0.0 0.00 0.00 0.00 78 1021.3
20260509174103 59 63 1.0 3.0 0.00 0.00 0.00 77 1021.4
20260509173604 59 79 0.0 0.0 0.00 0.00 0.00 78 1021.5
20260509173104 59 79 0.0 2.0 0.00 0.00 0.00 76 1021.3
20260509171604 60 78 0.0 0.0 0.00 0.00 0.00 75 1021.3
20260509171104 60 78 0.0 0.0 0.00 0.00 0.00 76 1021.3
20260509170603 60 78 0.0 1.0 0.00 0.00 0.00 74 1021.4
20260509165604 60 69 0.0 2.0 0.00 0.00 0.00 74 1021.3
20260509165104 60 54 1.0 3.0 0.00 0.00 0.00 73 1021.3
20260509164104 59 53 0.0 0.0 0.00 0.00 0.00 78 1021.3
20260509163604 58 53 1.0 6.0 0.00 0.00 0.00 76 1021.3
20260509162603 58 55 0.0 3.0 0.00 0.00 0.00 75 1021.3
20260509162103 58 57 0.0 5.0 0.00 0.00 0.00 72 1021.3
20260509161604 58 66 0.0 1.0 0.00 0.00 0.00 76 1021.5
20260509161104 57 66 0.0 0.0 0.00 0.00 0.00 77 1021.5
20260509160604 57 62 0.0 0.0 0.00 0.00 0.00 79 1021.5
20260509160104 57 62 0.0 0.0 0.00 0.00 0.00 79 1021.5
20260509155603 56 62 0.0 0.0 0.00 0.00 0.00 80 1021.5
20260509155103 56 62 0.0 0.0 0.00 0.00 0.00 82 1021.5
20260509154603 56 62 0.0 1.0 0.00 0.00 0.00 83 1021.7
20260509154103 55 62 0.0 0.0 0.00 0.00 0.00 83 1021.8
20260509153604 55 62 2.0 3.0 0.00 0.00 0.00 83 1021.7
20260509153104 54 69 1.0 3.0 0.00 0.00 0.00 84 1021.7
20260509152103 54 83 0.0 0.0 0.00 0.00 0.00 88 1021.7
20260509151603 53 84 0.0 0.0 0.00 0.00 0.00 89 1021.8
20260509151104 53 83 0.0 0.0 0.00 0.00 0.00 90 1021.8
20260509150604 52 83 0.0 0.0 0.00 0.00 0.00 91 1021.8
20260509150104 52 83 0.0 1.0 0.00 0.00 0.00 92 1021.9
20260509145604 51 107 0.0 0.0 0.00 0.00 0.00 92 1021.9
20260509145103 51 110 0.0 0.0 0.00 0.00 0.00 92 1021.9
20260509144104 50 110 0.0 0.0 0.00 0.00 0.00 92 1022.0
20260509142603 49 110 0.0 0.0 0.00 0.00 0.00 93 1021.9
20260509141603 48 110 0.0 0.0 0.00 0.00 0.00 92 1021.9
20260509140604 47 110 0.0 0.0 0.00 0.00 0.00 92 1021.8
20260509140104 47 110 0.0 0.0 0.00 0.00 0.00 92 1021.7
20260509135603 46 110 0.0 0.0 0.00 0.00 0.00 92 1021.9
20260509135104 46 110 0.0 0.0 0.00 0.00 0.00 92 1021.9
20260509134603 46 110 0.0 0.0 0.00 0.00 0.00 92 1021.8
20260509133604 46 110 0.0 0.0 0.00 0.00 0.00 91 1021.7
20260509133104 46 110 0.0 0.0 0.00 0.00 0.00 91 1021.8
20260509132104 46 110 0.0 0.0 0.00 0.00 0.00 91 1021.9
20260509131605 46 110 0.0 0.0 0.00 0.00 0.00 91 1021.8
20260509131103 46 110 0.0 0.0 0.00 0.00 0.00 91 1021.8
20260509130603 46 110 0.0 0.0 0.00 0.00 0.00 91 1021.8
20260509130104 46 110 0.0 0.0 0.00 0.00 0.00 91 1021.8
20260509125605 46 110 0.0 0.0 0.00 0.00 0.00 91 1021.8
20260509125104 46 110 0.0 0.0 0.00 0.00 0.00 90 1021.6
20260509124604 46 110 0.0 0.0 0.00 0.00 0.00 90 1021.7
20260509124103 46 110 0.0 0.0 0.00 0.00 0.00 90 1021.8
20260509123605 46 312 0.0 0.0 0.00 0.00 0.00 90 1021.8
20260509123104 46 312 0.0 0.0 0.00 0.00 0.00 90 1021.7
20260509122604 46 219 0.0 0.0 0.00 0.00 0.00 90 1021.7
20260509122103 46 65 0.0 0.0 0.00 0.00 0.00 90 1021.7
20260509121605 46 55 0.0 0.0 0.00 0.00 0.00 90 1021.6
20260509121104 46 55 0.0 0.0 0.00 0.00 0.00 90 1021.6
20260509120603 46 55 0.0 0.0 0.00 0.00 0.00 89 1021.6
20260509120104 46 55 0.0 0.0 0.00 0.00 0.00 89 1021.6
20260509115605 47 55 0.0 0.0 0.00 0.00 0.00 89 1021.6
20260509115103 47 55 0.0 0.0 0.00 0.00 0.00 89 1021.5
20260509114603 47 55 0.0 0.0 0.00 0.00 0.00 89 1021.5
20260509114104 47 55 0.0 0.0 0.00 0.00 0.00 89 1021.5
20260509113604 47 55 0.0 0.0 0.00 0.00 0.00 89 1021.6
20260509113103 47 55 0.0 0.0 0.00 0.00 0.00 89 1021.6
20260509112604 47 55 0.0 0.0 0.00 0.00 0.00 89 1021.6
20260509112103 47 55 0.0 0.0 0.00 0.00 0.00 89 1021.6
20260509111604 47 55 0.0 0.0 0.00 0.00 0.00 89 1021.6
20260509111103 47 55 0.0 0.0 0.00 0.00 0.00 89 1021.7
20260509110604 47 55 0.0 0.0 0.00 0.00 0.00 89 1021.7
20260509110103 47 55 0.0 0.0 0.00 0.00 0.00 89 1021.7
20260509105604 47 55 0.0 0.0 0.00 0.00 0.00 89 1021.7
20260509105104 47 55 0.0 0.0 0.00 0.00 0.00 89 1021.7
20260509104604 47 55 0.0 0.0 0.00 0.00 0.00 89 1021.7
20260509104108 47 55 0.0 0.0 0.00 0.00 0.00 89 1021.7
20260509103605 47 55 0.0 0.0 0.00 0.00 0.00 88 1021.7
20260509103103 47 55 0.0 0.0 0.00 0.00 0.00 88 1021.7
20260509102603 47 55 0.0 0.0 0.00 0.00 0.00 88 1021.7
20260509101103 47 55 0.0 0.0 0.00 0.00 0.00 88 1021.6
20260509100604 47 55 0.0 0.0 0.00 0.00 0.00 87 1021.6
20260509095603 47 55 0.0 0.0 0.00 0.00 0.00 87 1021.6
20260509095103 48 55 0.0 0.0 0.00 0.00 0.00 87 1021.6
20260509094603 48 55 0.0 0.0 0.00 0.00 0.00 87 1021.6
20260509094104 48 55 0.0 0.0 0.00 0.00 0.00 87 1021.6
20260509093103 48 55 0.0 0.0 0.00 0.00 0.00 86 1021.6
20260509092604 48 55 0.0 0.0 0.00 0.00 0.00 86 1021.6
20260509092105 48 55 0.0 0.0 0.00 0.00 0.00 86 1021.6
20260509091604 48 55 0.0 0.0 0.00 0.00 0.00 86 1021.6
20260509091103 48 55 0.0 0.0 0.00 0.00 0.00 86 1021.7
20260509090604 48 55 0.0 0.0 0.00 0.00 0.00 86 1021.6
20260509090104 49 55 0.0 0.0 0.00 0.00 0.00 86 1021.6
20260509085604 49 55 0.0 0.0 0.00 0.00 0.00 86 1021.7
20260509085103 49 55 0.0 0.0 0.00 0.00 0.00 86 1021.6
20260509084104 49 55 0.0 0.0 0.00 0.00 0.00 85 1021.7
20260509083603 49 55 0.0 0.0 0.00 0.00 0.00 85 1021.7
20260509083103 49 55 0.0 0.0 0.00 0.00 0.00 85 1021.6
20260509082103 50 55 0.0 0.0 0.00 0.00 0.00 84 1021.6
20260509081603 50 55 0.0 0.0 0.00 0.00 0.00 84 1021.6
20260509081103 50 55 0.0 0.0 0.00 0.00 0.00 84 1021.7
20260509080604 51 55 0.0 0.0 0.00 0.00 0.00 84 1021.7
20260509080104 51 55 0.0 0.0 0.00 0.00 0.00 84 1021.6
20260509075603 51 55 0.0 0.0 0.00 0.00 0.00 84 1021.7
20260509075103 51 55 0.0 0.0 0.00 0.00 0.00 84 1021.6
20260509074605 51 55 0.0 0.0 0.00 0.00 0.00 84 1021.7
20260509074103 51 55 0.0 0.0 0.00 0.00 0.00 84 1021.6
20260509073603 51 55 0.0 0.0 0.00 0.00 0.00 84 1021.6
20260509072605 51 55 0.0 0.0 0.00 0.00 0.00 83 1021.7
20260509072103 51 55 0.0 0.0 0.00 0.00 0.00 83 1021.8
20260509071603 51 55 0.0 0.0 0.00 0.00 0.00 83 1021.7
20260509071104 51 55 0.0 0.0 0.00 0.00 0.00 83 1021.7
20260509070604 51 55 0.0 0.0 0.00 0.00 0.00 84 1021.7
20260509065603 51 55 0.0 0.0 0.00 0.00 0.00 84 1021.7
20260509065103 51 55 0.0 0.0 0.00 0.00 0.00 84 1021.7
20260509064604 51 55 0.0 0.0 0.00 0.00 0.00 84 1021.7
20260509064104 51 55 0.0 0.0 0.00 0.00 0.00 84 1021.7
20260509063103 51 55 0.0 0.0 0.00 0.00 0.00 84 1021.6
20260509062603 51 55 0.0 0.0 0.00 0.00 0.00 84 1021.5
20260509062103 51 55 0.0 0.0 0.00 0.00 0.00 83 1021.5
20260509061603 51 55 0.0 0.0 0.00 0.00 0.00 83 1021.4
20260509061104 51 55 0.0 0.0 0.00 0.00 0.00 83 1021.4
20260509060603 51 55 0.0 0.0 0.00 0.00 0.00 83 1021.4
20260509060104 51 55 0.0 0.0 0.00 0.00 0.00 82 1021.4
20260509055603 51 55 0.0 0.0 0.00 0.00 0.00 82 1021.4
20260509055103 51 55 0.0 0.0 0.00 0.00 0.00 81 1021.4
20260509054604 51 55 0.0 0.0 0.00 0.00 0.00 81 1021.4
20260509054103 52 55 0.0 0.0 0.00 0.00 0.00 81 1021.3
20260509053603 52 55 0.0 0.0 0.00 0.00 0.00 81 1021.3
20260509053103 52 55 0.0 0.0 0.00 0.00 0.00 81 1021.3
20260509052604 52 55 0.0 0.0 0.00 0.00 0.00 81 1021.3
20260509052103 52 55 0.0 0.0 0.00 0.00 0.00 81 1021.3
20260509051604 52 55 0.0 0.0 0.00 0.00 0.00 81 1021.2
20260509051104 52 55 0.0 0.0 0.00 0.00 0.00 80 1021.3
20260509050603 52 55 0.0 0.0 0.00 0.00 0.00 80 1021.2
20260509045603 52 55 0.0 0.0 0.00 0.00 0.00 80 1021.2
20260509044103 53 55 0.0 0.0 0.00 0.00 0.00 79 1021.0
20260509043603 53 55 0.0 0.0 0.00 0.00 0.00 79 1021.0
20260509043103 53 55 0.0 0.0 0.00 0.00 0.00 78 1020.9
20260509042603 53 55 0.0 0.0 0.00 0.00 0.00 78 1020.9
20260509042103 53 55 0.0 0.0 0.00 0.00 0.00 77 1020.8
20260509041603 54 55 0.0 0.0 0.00 0.00 0.00 76 1020.7
20260509040603 54 55 0.0 0.0 0.00 0.00 0.00 75 1020.7
20260509040104 55 55 0.0 0.0 0.00 0.00 0.00 74 1020.6
20260509035604 55 55 0.0 0.0 0.00 0.00 0.00 74 1020.5
20260509034603 56 55 0.0 0.0 0.00 0.00 0.00 73 1020.5
20260509034103 56 55 0.0 0.0 0.00 0.00 0.00 73 1020.4
20260509033103 57 55 0.0 0.0 0.00 0.00 0.00 71 1020.4
20260509032603 57 55 0.0 0.0 0.00 0.00 0.00 70 1020.3
20260509032103 57 55 0.0 0.0 0.00 0.00 0.00 70 1020.3
20260509031603 57 55 0.0 0.0 0.00 0.00 0.00 70 1020.2
20260509031103 57 55 0.0 0.0 0.00 0.00 0.00 69 1020.2
20260509030603 58 55 0.0 0.0 0.00 0.00 0.00 69 1020.2
20260509030104 58 55 0.0 0.0 0.00 0.00 0.00 68 1020.3
20260509025603 58 55 0.0 1.0 0.00 0.00 0.00 68 1020.2
20260509025103 58 55 0.0 0.0 0.00 0.00 0.00 69 1020.2
20260509024603 58 55 0.0 0.0 0.00 0.00 0.00 69 1020.2
20260509024103 58 55 0.0 0.0 0.00 0.00 0.00 67 1020.1
20260509023603 58 55 0.0 0.0 0.00 0.00 0.00 66 1020.0